EW8665 Weather Reports


time (UTC)temp
C
wind
direction
speed
KPH
gust
KPH
rain 1hr
cm
rain 24hr
cm
rain mn
cm
humidity
%
barometer
mb
20260507200504 10 63 3.2 8.0 0.00 0.66 0.58 87 1014.9
20260507200004 10 64 3.2 6.4 0.00 0.66 0.58 87 1014.7
20260507195504 10 64 4.8 6.4 0.00 0.66 0.58 87 1014.8
20260507195004 10 64 4.8 6.4 0.00 0.69 0.58 87 1014.7
20260507194504 11 70 4.8 9.7 0.00 0.71 0.58 86 1014.7
20260507194003 11 70 4.8 9.7 0.00 0.71 0.58 86 1014.6
20260507193504 11 78 4.8 8.0 0.00 0.71 0.58 86 1014.7
20260507192504 11 89 4.8 9.7 0.00 0.74 0.58 85 1014.4
20260507191504 11 83 6.4 9.7 0.00 0.76 0.58 83 1014.4
20260507191007 12 74 6.4 9.7 0.00 0.76 0.58 82 1014.3
20260507190504 12 44 4.8 9.7 0.00 0.76 0.58 81 1014.3
20260507190005 12 26 4.8 9.7 0.00 0.79 0.58 77 1014.1
20260507184504 12 356 6.4 11.3 0.00 0.81 0.58 76 1014.3
20260507184004 13 10 4.8 8.0 0.00 0.84 0.58 75 1014.3
20260507183504 13 16 4.8 9.7 0.00 0.84 0.58 75 1014.2
20260507182503 13 33 8.0 12.9 0.00 0.84 0.58 74 1014.2
20260507182004 13 42 6.4 12.9 0.00 0.86 0.58 73 1014.3
20260507181505 13 50 6.4 12.9 0.00 0.89 0.58 73 1014.2
20260507181005 13 50 8.0 12.9 0.00 0.89 0.58 71 1014.1
20260507180508 13 59 8.0 12.9 0.00 0.91 0.58 70 1013.9
20260507180006 14 57 6.4 12.9 0.00 0.94 0.58 68 1013.8
20260507175505 14 59 6.4 12.9 0.00 0.94 0.58 67 1013.9
20260507175005 14 58 9.7 22.5 0.00 0.94 0.58 66 1013.6
20260507174005 15 54 6.4 14.5 0.00 0.99 0.58 65 1013.6
20260507173505 15 31 4.8 11.3 0.00 0.99 0.58 66 1013.7
20260507173005 14 27 4.8 12.9 0.00 1.02 0.58 66 1013.9
20260507172505 15 20 6.4 12.9 0.00 1.04 0.58 65 1013.8
20260507172005 15 23 4.8 11.3 0.00 1.04 0.58 65 1013.7
20260507171506 15 19 6.4 12.9 0.00 1.07 0.58 65 1013.8
20260507171005 15 13 6.4 12.9 0.00 1.07 0.58 65 1013.5
20260507170005 15 18 8.0 16.1 0.00 1.12 0.58 65 1013.5
20260507165505 15 35 6.4 16.1 0.00 1.12 0.58 65 1013.6
20260507165005 15 49 4.8 11.3 0.00 1.12 0.58 65 1013.5
20260507164505 15 66 4.8 12.9 0.00 1.14 0.58 65 1013.5
20260507164005 15 66 8.0 12.9 0.00 1.17 0.58 63 1013.5
20260507163506 16 74 8.0 14.5 0.00 1.17 0.58 62 1013.6
20260507163005 16 74 8.0 14.5 0.00 1.19 0.58 60 1013.7
20260507162508 16 70 8.0 12.9 0.00 1.19 0.58 60 1013.4
20260507162006 16 72 9.7 14.5 0.00 1.22 0.58 60 1013.7
20260507161505 16 73 8.0 14.5 0.00 1.24 0.58 60 1013.6
20260507161005 16 73 6.4 12.9 0.00 1.27 0.58 60 1013.6
20260507160506 16 70 8.0 12.9 0.00 1.27 0.58 58 1013.5
20260507160008 16 74 9.7 17.7 0.00 1.30 0.58 58 1013.6
20260507155505 17 78 8.0 17.7 0.00 1.32 0.58 58 1013.6
20260507155005 17 76 6.4 12.9 0.00 1.32 0.58 58 1013.6
20260507154505 17 69 6.4 12.9 0.00 1.35 0.58 58 1013.6
20260507154005 17 90 4.8 11.3 0.00 1.35 0.58 59 1013.8
20260507153506 17 100 4.8 9.7 0.00 1.35 0.58 55 1013.7
20260507153005 17 87 4.8 6.4 0.00 1.37 0.58 56 1014.0
20260507152505 17 100 4.8 8.0 0.00 1.37 0.58 58 1013.5
20260507151505 16 113 4.8 12.9 0.00 1.40 0.58 59 1013.7
20260507151005 16 137 4.8 11.3 0.00 1.40 0.58 60 1013.6
20260507150505 16 136 6.4 14.5 0.00 1.40 0.58 60 1013.6
20260507150006 16 136 4.8 14.5 0.00 1.40 0.58 62 1013.6
20260507145505 16 126 4.8 11.3 0.00 1.40 0.58 63 1013.8
20260507145005 16 109 4.8 17.7 0.00 1.40 0.58 62 1013.9
20260507144005 16 70 6.4 14.5 0.00 1.40 0.58 63 1013.9
20260507143505 16 71 4.8 14.5 0.00 1.40 0.58 65 1013.9
20260507143006 16 59 6.4 11.3 0.00 1.40 0.58 65 1013.9
20260507142505 16 57 6.4 17.7 0.00 1.40 0.58 62 1014.0
20260507142005 16 63 8.0 17.7 0.00 1.40 0.58 65 1014.0
20260507141505 16 60 8.0 12.9 0.00 1.40 0.58 65 1013.9
20260507140505 16 53 8.0 12.9 0.00 1.42 0.58 65 1014.0
20260507140006 15 54 8.0 12.9 0.00 1.42 0.58 66 1014.0
20260507135506 15 51 8.0 12.9 0.00 1.42 0.58 67 1013.9
20260507135005 15 50 8.0 14.5 0.00 1.42 0.58 67 1014.0
20260507134506 15 52 8.0 14.5 0.00 1.45 0.58 67 1014.1
20260507134005 15 51 8.0 14.5 0.00 1.45 0.58 66 1014.2
20260507133005 15 41 4.8 9.7 0.00 1.45 0.58 69 1014.0
20260507132505 15 33 6.4 11.3 0.00 1.45 0.58 69 1014.2
20260507132005 15 23 6.4 11.3 0.00 1.45 0.58 70 1014.1
20260507131505 14 18 6.4 11.3 0.00 1.45 0.58 72 1014.1
20260507131005 14 11 6.4 16.1 0.00 1.45 0.58 75 1014.1
20260507130508 14 8 6.4 16.1 0.00 1.47 0.58 76 1014.2
20260507130005 13 13 8.0 16.1 0.00 1.47 0.58 76 1014.3
20260507125505 13 18 9.7 17.7 0.00 1.47 0.58 76 1014.2
20260507125005 13 29 11.3 17.7 0.00 1.50 0.58 76 1014.3
20260507124006 13 47 9.7 16.1 0.00 1.50 0.58 76 1014.1
20260507123005 14 82 11.3 17.7 0.00 1.52 0.58 74 1014.1
20260507122505 15 233 6.4 14.5 0.00 1.55 0.58 71 1014.1
20260507122005 15 283 6.4 17.7 0.00 1.55 0.58 69 1013.9
20260507120504 15 328 4.8 12.9 0.00 1.60 0.58 63 1013.6
20260507120006 15 337 4.8 11.3 0.00 1.73 0.58 61 1013.5
20260507115505 15 333 4.8 11.3 0.00 1.73 0.58 62 1013.7
20260507115005 15 312 6.4 12.9 0.00 1.75 0.58 65 1013.6
20260507114505 15 300 6.4 12.9 0.00 1.75 0.58 66 1013.7
20260507114005 14 301 4.8 11.3 0.00 1.78 0.58 65 1013.8
20260507113505 14 289 3.2 9.7 0.00 1.78 0.58 65 1013.7
20260507113006 14 277 3.2 9.7 0.00 1.78 0.58 65 1013.8
20260507112505 14 268 3.2 8.0 0.00 1.80 0.58 66 1013.8
20260507112005 14 267 4.8 11.3 0.00 1.80 0.58 66 1013.6
20260507111506 14 258 4.8 11.3 0.00 1.80 0.58 65 1013.8
20260507110505 14 251 4.8 11.3 0.00 1.80 0.58 66 1013.9
20260507110005 14 246 4.8 11.3 0.00 1.80 0.58 66 1013.8
20260507105505 14 253 4.8 11.3 0.00 1.80 0.58 68 1013.9
20260507105006 14 252 3.2 8.0 0.00 1.83 0.58 69 1014.1
20260507104505 14 258 3.2 8.0 0.00 1.83 0.58 69 1013.9
20260507104005 13 251 4.8 9.7 0.00 1.83 0.58 70 1014.1
20260507103005 13 247 6.4 16.1 0.00 1.83 0.58 70 1014.1
20260507102505 13 241 8.0 16.1 0.00 1.83 0.58 69 1014.0
20260507102008 14 233 8.0 16.1 0.00 1.83 0.58 68 1014.2
20260507101506 14 212 4.8 11.3 0.00 1.83 0.58 68 1014.3
20260507101005 15 215 4.8 9.7 0.00 1.83 0.58 69 1014.1
20260507100505 15 216 6.4 11.3 0.00 1.83 0.58 72 1014.1
20260507100005 15 207 6.4 16.1 0.00 1.83 0.58 73 1014.2
20260507095006 13 227 4.8 11.3 0.00 1.83 0.58 74 1014.2
20260507094505 13 238 4.8 11.3 0.00 1.83 0.58 76 1014.2
20260507094005 13 243 4.8 11.3 0.00 1.83 0.58 76 1014.2
20260507093505 13 243 4.8 11.3 0.00 1.83 0.58 76 1014.0
20260507093005 12 251 6.4 14.5 0.00 1.83 0.58 76 1014.1
20260507092006 12 251 4.8 12.9 0.00 1.83 0.58 76 1013.8
20260507091505 12 252 4.8 9.7 0.00 1.83 0.58 77 1014.0
20260507091005 12 253 4.8 9.7 0.00 1.83 0.58 77 1013.8
20260507090505 12 248 6.4 9.7 0.00 1.83 0.58 78 1013.8
20260507090006 12 248 6.4 9.7 0.00 1.83 0.58 80 1013.7
20260507085505 12 237 4.8 9.7 0.00 1.83 0.58 78 1013.7
20260507085005 12 237 4.8 9.7 0.00 1.83 0.58 78 1013.6
20260507084505 12 248 3.2 9.7 0.00 1.83 0.58 80 1013.5
20260507084005 12 244 3.2 8.0 0.00 1.83 0.58 84 1013.5
20260507083005 12 246 4.8 9.7 0.00 1.83 0.58 84 1013.6
20260507082505 11 249 6.4 12.9 0.00 1.83 0.58 84 1013.4
20260507082004 11 251 6.4 12.9 0.00 1.83 0.58 85 1013.6
20260507081505 11 243 4.8 11.3 0.00 1.83 0.58 85 1013.5
20260507081005 11 252 4.8 11.3 0.00 1.83 0.58 85 1013.7
20260507080505 11 251 3.2 9.7 0.00 1.83 0.58 86 1013.4
20260507080005 11 257 3.2 11.3 0.00 1.83 0.58 86 1013.4
20260507075505 11 255 4.8 11.3 0.00 1.83 0.58 87 1013.3
20260507075005 11 252 4.8 8.0 0.00 1.83 0.58 88 1013.3
20260507074505 11 249 6.4 8.0 0.00 1.83 0.58 87 1013.4
20260507074005 11 235 4.8 9.7 0.00 1.83 0.58 87 1013.5
20260507073005 11 230 3.2 11.3 0.00 1.83 0.58 87 1013.2
20260507072505 11 236 3.2 4.8 0.00 1.83 0.58 87 1013.3
20260507072008 11 238 3.2 6.4 0.00 1.83 0.58 88 1013.3
20260507071505 11 239 4.8 9.7 0.00 1.83 0.58 89 1013.1
20260507071006 11 245 4.8 11.3 0.00 1.83 0.58 89 1013.1
20260507070505 10 250 4.8 11.3 0.00 1.83 0.58 89 1013.1
20260507065505 10 242 3.2 8.0 0.00 1.83 0.58 90 1013.1
20260507065005 10 238 3.2 8.0 0.00 1.83 0.58 90 1013.1
20260507064505 10 232 4.8 8.0 0.00 1.83 0.58 90 1013.0
20260507063005 10 230 4.8 9.7 0.03 1.83 0.58 91 1013.0
20260507062505 10 231 4.8 14.5 0.03 1.83 0.58 91 1013.0
20260507062005 10 229 6.4 14.5 0.03 1.83 0.58 92 1012.9
20260507061506 10 236 4.8 14.5 0.03 1.83 0.58 93 1012.9
20260507061005 10 230 3.2 9.7 0.03 1.83 0.58 94 1012.9
20260507060505 10 227 3.2 6.4 0.03 1.83 0.58 94 1012.8
20260507060005 10 234 3.2 9.7 0.03 1.83 0.58 94 1012.7
20260507055005 10 221 4.8 9.7 0.03 1.80 0.56 94 1012.7
20260507054005 10 213 1.6 4.8 0.05 1.80 0.56 95 1012.5
20260507053505 10 219 3.2 4.8 0.05 1.80 0.56 95 1012.5
20260507053005 10 221 3.2 8.0 0.05 1.80 0.56 95 1012.4
20260507052005 10 247 1.6 4.8 0.05 1.80 0.56 95 1012.4
20260507051004 9 244 1.6 9.7 0.05 1.78 0.56 94 1012.2
20260507050505 9 241 4.8 16.1 0.05 1.78 0.56 94 1012.2
20260507045505 9 237 3.2 8.0 0.03 1.78 0.53 94 1012.0
20260507045005 9 237 3.2 8.0 0.05 1.78 0.53 94 1012.0
20260507044504 9 236 3.2 8.0 0.05 1.78 0.53 94 1011.9
20260507044005 9 238 4.8 12.9 0.03 1.78 0.53 94 1011.9
20260507043505 9 246 4.8 12.9 0.03 1.75 0.51 94 1011.9
20260507043005 9 239 3.2 11.3 0.03 1.75 0.51 95 1011.7
20260507042005 9 230 3.2 9.7 0.05 1.75 0.51 95 1011.8
20260507041505 9 235 4.8 12.9 0.03 1.75 0.51 95 1011.7
20260507041005 9 231 4.8 12.9 0.05 1.75 0.51 95 1011.8
20260507040505 9 227 3.2 4.8 0.05 1.75 0.51 95 1011.8
20260507040005 9 229 3.2 6.4 0.05 1.75 0.51 95 1011.7
20260507035505 9 239 4.8 6.4 0.05 1.75 0.51 95 1011.8
20260507034505 9 228 3.2 8.0 0.05 1.73 0.51 95 1011.6
20260507034006 9 228 3.2 8.0 0.05 1.73 0.51 95 1011.6
20260507033505 9 232 3.2 6.4 0.05 1.73 0.51 95 1011.6
20260507032505 9 215 3.2 8.0 0.05 1.73 0.48 95 1011.2
20260507032005 10 215 3.2 6.4 0.05 1.73 0.48 95 1011.4
20260507031504 10 216 3.2 6.4 0.08 1.73 0.48 95 1011.4
20260507031005 10 202 3.2 6.4 0.05 1.70 0.46 95 1011.6
20260507030005 10 202 4.8 12.9 0.08 1.68 0.46 96 1011.4
20260507025505 10 210 4.8 8.0 0.08 1.68 0.46 96 1011.4
20260507025004 10 227 4.8 8.0 0.10 1.68 0.46 96 1011.4
20260507024504 10 236 3.2 8.0 0.10 1.68 0.46 96 1011.4
20260507024005 9 248 3.2 6.4 0.10 1.68 0.43 96 1011.4
20260507023505 9 246 3.2 6.4 0.10 1.68 0.43 96 1011.4
20260507023005 9 243 4.8 14.5 0.13 1.68 0.43 96 1011.3
20260507022504 9 235 4.8 14.5 0.13 1.68 0.43 96 1011.1
20260507022005 9 233 3.2 9.7 0.13 1.65 0.43 96 1011.2
20260507021005 9 235 6.4 11.3 0.13 1.65 0.41 96 1011.2
20260507020505 9 242 6.4 14.5 0.13 1.63 0.38 96 1010.9
20260507020005 9 252 6.4 14.5 0.13 1.63 0.38 95 1011.0
20260507015505 9 254 4.8 11.3 0.13 1.60 0.38 95 1011.0
20260507015005 9 257 6.4 12.9 0.13 1.60 0.36 95 1011.2
20260507014505 9 257 6.4 14.5 0.10 1.57 0.33 95 1011.1
20260507014005 9 256 8.0 14.5 0.10 1.57 0.33 95 1011.0
20260507013505 9 253 8.0 12.9 0.10 1.57 0.33 95 1011.1
20260507013005 9 251 6.4 12.9 0.10 1.55 0.33 95 1011.1
20260507012505 9 250 3.2 11.3 0.10 1.55 0.30 95 1010.9
20260507012004 9 248 3.2 8.0 0.08 1.52 0.28 95 1011.1
20260507011505 9 246 4.8 8.0 0.08 1.52 0.28 94 1010.9
20260507011005 9 248 4.8 9.7 0.08 1.52 0.28 94 1011.0
20260507010505 9 258 4.8 9.7 0.08 1.50 0.28 93 1010.7
20260507010004 9 253 4.8 8.0 0.08 1.50 0.25 93 1010.8
20260507005505 9 251 4.8 8.0 0.05 1.50 0.25 93 1011.0
20260507005005 9 243 4.8 9.7 0.05 1.47 0.23 92 1011.0
20260507004505 9 242 4.8 9.7 0.05 1.47 0.23 92 1011.0
20260507004004 9 243 3.2 9.7 0.05 1.47 0.23 92 1010.9
20260507003505 9 229 3.2 9.7 0.05 1.47 0.23 92 1011.1
20260507003005 9 230 4.8 9.7 0.05 1.47 0.23 91 1010.9
20260507002505 9 233 4.8 14.5 0.05 1.45 0.20 91 1011.0
20260507002004 9 234 4.8 14.5 0.05 1.45 0.20 90 1011.0
20260507001505 9 242 4.8 14.5 0.05 1.45 0.20 90 1010.8
20260507000505 9 254 4.8 9.7 0.08 1.45 0.20 90 1011.1
20260507000005 9 250 4.8 9.7 0.08 1.45 0.18 90 1011.1
20260506235505 9 251 4.8 12.9 0.08 1.45 0.18 90 1011.1
20260506235005 9 248 4.8 12.9 0.10 1.45 0.18 90 1011.0
20260506234505 9 243 6.4 22.5 0.10 1.42 0.18 90 1011.1
20260506234005 9 234 8.0 22.5 0.10 1.42 0.18 90 1011.2
20260506233505 9 231 8.0 19.3 0.10 1.42 0.18 90 1011.2
20260506233005 9 232 6.4 12.9 0.10 1.42 0.18 91 1011.0
20260506232505 9 224 4.8 14.5 0.10 1.40 0.15 91 1011.2
20260506232004 9 227 6.4 14.5 0.10 1.40 0.15 91 1011.2
20260506231505 9 227 4.8 12.9 0.13 1.40 0.15 91 1011.2
20260506231005 9 233 3.2 9.7 0.13 1.40 0.15 91 1011.2
20260506230505 9 222 3.2 11.3 0.13 1.37 0.13 91 1011.0
20260506225505 9 227 4.8 14.5 0.10 1.35 0.10 90 1011.0
20260506224505 9 228 3.2 8.0 0.10 1.35 0.10 90 1011.0
20260506224005 10 219 3.2 12.9 0.08 1.32 0.08 90 1011.1
20260506223505 9 221 4.8 12.9 0.08 1.32 0.08 90 1011.0
20260506223006 10 215 6.4 17.7 0.05 1.32 0.05 90 1011.1
20260506222505 10 211 6.4 17.7 0.05 1.30 0.05 90 1011.1
20260506222007 10 209 3.2 8.0 0.05 1.27 0.03 90 1011.0
20260506221505 10 214 3.2 12.9 0.03 1.27 0.03 90 1010.9
20260506221007 10 229 3.2 12.9 0.03 1.27 0.00 89 1010.9
20260506220505 10 235 6.4 14.5 0.00 1.24 0.00 89 1010.8
20260506220008 10 242 6.4 14.5 0.00 1.24 0.00 89 1010.8
20260506215505 10 246 4.8 12.9 0.00 1.24 1.24 89 1010.7
20260506215007 10 247 6.4 9.7 0.00 1.24 1.24 89 1010.7
20260506214505 10 247 6.4 11.3 0.00 1.24 1.24 89 1010.8
20260506214005 10 245 4.8 12.9 0.03 1.24 1.24 89 1010.6
20260506213504 10 240 6.4 14.5 0.03 1.24 1.24 89 1010.6
20260506213004 10 236 6.4 14.5 0.00 1.24 1.24 90 1010.6
20260506212505 10 233 4.8 14.5 0.03 1.24 1.24 90 1010.7
20260506212005 10 231 4.8 12.9 0.03 1.24 1.24 90 1010.7
20260506211504 10 218 3.2 11.3 0.05 1.24 1.24 91 1010.5
20260506210505 10 221 4.8 9.7 0.05 1.24 1.24 91 1010.4
20260506210005 10 215 4.8 9.7 0.08 1.24 1.24 91 1010.5
20260506205004 10 212 8.0 12.9 0.10 1.24 1.24 92 1010.4
20260506204004 10 218 6.4 16.1 0.10 1.22 1.22 93 1010.3
20260506203505 10 218 3.2 11.3 0.13 1.22 1.22 93 1010.4
20260506203005 10 225 3.2 11.3 0.13 1.22 1.22 93 1010.4
20260506202505 10 238 3.2 17.7 0.13 1.22 1.22 93 1010.3
20260506202005 10 233 6.4 17.7 0.15 1.22 1.22 93 1010.3
20260506201505 10 228 4.8 17.7 0.13 1.19 1.19 93 1010.4